Date String (YYYY-MM-DD hh:mm:ss) UTC,Instrument flags,absolute air pressure of the measurement (hPa),sample flow rate (lpm),inlet stack bypass flow (lpm),air temperature of the measurement (°C),ambient temperature measured by the external sensor (°C),aerosol sample conditioner tube jacket temperature (°C),OPC LED temperature (°C),internal box temperature (°C),relative humidity of the measurement (%),span deviation,mass concentration of particles derived from Lorenz-Mie calculation of OPC scattering (μg/m³),mass concentration of particles derived from Lorenz-Mie calculation of OPC scattering (μg/m³),mass concentration of particles derived from Lorenz-Mie calculation of OPC scattering (μg/m³)
DateTimeUTC,F1_M11,P_M11,Q1_M11,Q2_M11,T1_M11,T2_M11,T3_M11,T4_M11,T5_M11,U1_M11,ZSPAN_M11,X0_M11,X2_M11,X1_M11
2024-02-28 21:00:00,SystemResetWarning,0828.1,5.00,000.00,020.7,019.8,000.0,029.1,022.2,07.0,0000.0,0011.51,0003.54,0001.69
2024-02-28 21:01:00,SystemResetWarning,0828.1,5.01,000.00,020.7,019.8,000.0,029.1,022.3,07.3,0000.0,0011.56,0003.53,0001.67
2024-02-28 21:02:00,SystemResetWarning,0828.1,5.01,000.00,020.7,019.9,000.0,029.1,022.3,07.3,0000.0,0011.13,0003.49,0001.63
2024-02-28 21:03:00,SystemResetWarning,0828.1,5.01,000.00,020.7,019.9,000.0,029.1,022.4,06.9,0000.0,0010.39,0003.46,0001.57
2024-02-28 21:04:00,SystemResetWarning,0828.2,4.99,000.00,020.7,019.9,000.0,029.1,022.4,06.9,0000.0,0009.94,0003.45,0001.51
2024-02-28 21:05:00,SystemResetWarning,0828.2,4.99,000.00,020.7,019.9,000.0,029.1,022.4,07.1,0000.0,0009.55,0003.40,0001.46
2024-02-28 21:06:00,SystemResetWarning,0828.2,5.01,000.00,020.7,020.0,000.0,029.1,022.4,07.1,0000.0,0009.52,0003.38,0001.42
2024-02-28 21:07:00,SystemResetWarning,0828.2,5.00,000.00,020.7,020.0,000.0,029.1,022.4,07.3,0000.0,0009.69,0003.37,0001.39
2024-02-28 21:08:00,SystemResetWarning,0828.2,5.01,000.00,020.7,020.0,000.0,029.1,022.4,07.3,0000.0,0009.81,0003.39,0001.39
2024-02-28 21:09:00,SystemResetWarning,0828.2,5.00,000.00,020.8,020.0,000.0,029.1,022.4,07.1,0000.0,0009.16,0003.38,0001.38
2024-02-28 21:10:00,SystemResetWarning,0828.2,4.99,000.00,020.8,020.0,000.0,029.0,022.4,07.2,0000.0,0008.87,0003.32,0001.38
2024-02-28 21:11:00,SystemResetWarning,0828.3,4.99,000.00,020.8,020.1,000.0,029.0,022.4,07.1,0000.0,0008.87,0003.30,0001.38
2024-02-28 21:12:00,SystemResetWarning,0828.2,5.01,000.00,020.8,020.1,000.0,029.0,022.4,06.9,0000.0,0008.70,0003.27,0001.37
2024-02-28 21:13:00,SystemResetWarning,0828.3,5.01,000.00,020.8,020.1,000.0,029.0,022.4,07.0,0000.0,0008.69,0003.23,0001.36
2024-02-28 21:14:00,SystemResetWarning,0828.3,4.99,000.00,020.8,020.1,000.0,029.0,022.5,07.1,0000.0,0008.88,0003.28,0001.37
2024-02-28 21:15:00,SystemResetWarning,0828.2,4.99,000.00,020.8,020.1,000.0,029.0,022.5,07.2,0000.0,0009.18,0003.33,0001.40
2024-02-28 21:16:00,SystemResetWarning,0828.2,5.00,000.00,020.8,020.1,000.0,029.0,022.5,07.2,0000.0,0009.56,0003.37,0001.41
2024-02-28 21:17:00,SystemResetWarning,0828.3,5.01,000.00,020.8,020.2,000.0,029.0,022.5,06.9,0000.0,0009.62,0003.40,0001.42
2024-02-28 21:18:00,SystemResetWarning,0828.3,5.00,000.00,020.8,020.2,000.0,029.0,022.5,07.1,0000.0,0010.07,0003.39,0001.43
2024-02-28 21:19:00,SystemResetWarning,0828.3,4.99,000.00,020.8,020.2,000.0,029.0,022.5,07.3,0000.0,0009.36,0003.31,0001.42
2024-02-28 21:20:00,SystemResetWarning,0828.3,4.99,000.00,020.8,020.2,000.0,029.0,022.5,07.1,0000.0,0009.15,0003.29,0001.44
2024-02-28 21:21:00,SystemResetWarning,0828.2,5.00,000.00,020.8,020.2,000.0,029.0,022.5,07.1,0000.0,0009.03,0003.29,0001.45
2024-02-28 21:22:00,SystemResetWarning,0828.3,5.01,000.00,020.8,020.2,000.0,029.0,022.5,06.9,0000.0,0009.02,0003.31,0001.45
2024-02-28 21:23:00,SystemResetWarning,0828.2,5.00,000.00,020.8,020.2,000.0,029.0,022.5,07.2,0000.0,0009.23,0003.35,0001.46
2024-02-28 21:24:00,SystemResetWarning,0828.2,4.99,000.00,020.9,020.2,000.0,029.0,022.5,07.1,0000.0,0009.19,0003.36,0001.46
2024-02-28 21:25:00,SystemResetWarning,0828.2,5.00,000.00,020.9,020.2,000.0,029.0,022.5,07.0,0000.0,0009.15,0003.33,0001.47
2024-02-28 21:26:00,SystemResetWarning,0828.3,5.01,000.00,020.9,020.2,000.0,029.0,022.5,07.3,0000.0,0009.21,0003.29,0001.47
2024-02-28 21:27:00,SystemResetWarning,0828.3,5.01,000.00,020.9,020.2,000.0,029.1,022.5,07.1,0000.0,0009.15,0003.30,0001.47
2024-02-28 21:28:00,SystemResetWarning,0828.3,5.01,000.00,020.9,020.2,000.0,029.1,022.5,07.0,0000.0,0009.65,0003.30,0001.48
2024-02-28 21:29:00,SystemResetWarning,0828.3,4.99,000.00,020.9,020.2,000.0,029.1,022.6,06.9,0000.0,0009.23,0003.37,0001.49
2024-02-28 21:30:00,SystemResetWarning,0828.2,4.98,000.00,020.9,020.2,000.0,029.1,022.6,07.0,0000.0,0010.14,0003.52,0001.51
2024-02-28 21:31:00,SystemResetWarning,0828.2,5.00,000.00,020.9,020.2,000.0,029.1,022.5,07.1,0000.0,0010.76,0003.59,0001.53
2024-02-28 21:32:00,SystemResetWarning,0828.3,5.00,000.00,020.9,020.3,000.0,029.1,022.5,07.0,0000.0,0010.91,0003.63,0001.55
2024-02-28 21:33:00,SystemResetWarning,0828.3,5.01,000.00,020.9,020.3,000.0,029.1,022.5,07.0,0000.0,0011.05,0003.60,0001.56
2024-02-28 21:34:00,SystemResetWarning,0828.4,5.01,000.00,020.9,020.3,000.0,029.1,022.6,06.9,0000.0,0011.26,0003.55,0001.57
2024-02-28 21:35:00,SystemResetWarning,0828.2,4.99,000.00,020.9,020.3,000.0,029.1,022.6,06.9,0000.0,0011.40,0003.59,0001.59
2024-02-28 21:36:00,SystemResetWarning,0828.3,5.00,000.00,020.9,020.3,000.0,029.1,022.6,07.0,0000.0,0011.27,0003.56,0001.59
2024-02-28 21:37:00,SystemResetWarning,0828.3,5.00,000.00,020.9,020.3,000.0,029.1,022.6,06.9,0000.0,0011.09,0003.57,0001.57
2024-02-28 21:38:00,SystemResetWarning,0828.3,5.01,000.00,020.9,020.3,000.0,029.1,022.6,06.9,0000.0,0011.15,0003.57,0001.57
2024-02-28 21:39:00,SystemResetWarning,0828.3,5.00,000.00,021.0,020.3,000.0,029.1,022.6,07.1,0000.0,0010.45,0003.54,0001.57
2024-02-28 21:40:00,SystemResetWarning,0828.2,5.01,000.00,021.0,020.3,000.0,029.1,022.6,07.2,0000.0,0010.37,0003.54,0001.57
2024-02-28 21:41:00,SystemResetWarning,0828.2,5.00,000.00,021.0,020.3,000.0,029.1,022.6,07.2,0000.0,0009.88,0003.48,0001.56
2024-02-28 21:42:00,SystemResetWarning,0828.2,5.00,000.00,021.0,020.3,000.0,029.1,022.6,07.3,0000.0,0009.31,0003.41,0001.56
2024-02-28 21:43:00,SystemResetWarning,0828.2,4.99,000.00,021.0,020.3,000.0,029.1,022.6,07.0,0000.0,0009.28,0003.40,0001.54
2024-02-28 21:44:00,SystemResetWarning,0828.3,5.00,000.00,021.0,020.3,000.0,029.1,022.7,07.1,0000.0,0009.26,0003.43,0001.53
2024-02-28 21:45:00,SystemResetWarning,0828.3,5.00,000.00,021.0,020.3,000.0,029.1,022.7,06.9,0000.0,0008.92,0003.47,0001.52
2024-02-28 21:46:00,SystemResetWarning,0828.3,5.00,000.00,021.0,020.4,000.0,029.1,022.6,07.1,0000.0,0008.87,0003.47,0001.52
2024-02-28 21:47:00,SystemResetWarning,0828.3,4.99,000.00,021.0,020.4,000.0,029.2,022.6,07.3,0000.0,0008.79,0003.45,0001.51
2024-02-28 21:48:00,SystemResetWarning,0828.3,5.00,000.00,021.0,020.4,000.0,029.2,022.7,07.1,0000.0,0008.73,0003.45,0001.52
2024-02-28 21:49:00,SystemResetWarning,0828.3,5.00,000.00,021.0,020.4,000.0,029.2,022.7,07.1,0000.0,0008.58,0003.42,0001.54
2024-02-28 21:50:00,SystemResetWarning,0828.3,5.00,000.00,021.0,020.4,000.0,029.2,022.7,07.0,0000.0,0008.56,0003.41,0001.55
2024-02-28 21:51:00,SystemResetWarning,0828.3,5.00,000.00,021.0,020.4,000.0,029.2,022.7,07.2,0000.0,0008.61,0003.40,0001.57
2024-02-28 21:52:00,SystemResetWarning,0828.3,5.00,000.00,021.0,020.4,000.0,029.2,022.7,07.1,0000.0,0008.37,0003.34,0001.56
2024-02-28 21:53:00,SystemResetWarning,0828.4,5.00,000.00,021.0,020.4,000.0,029.2,022.7,07.1,0000.0,0008.30,0003.35,0001.57
2024-02-28 21:54:00,SystemResetWarning,0828.4,5.01,000.00,021.1,020.4,000.0,029.2,022.7,07.3,0000.0,0008.32,0003.34,0001.56
2024-02-28 21:55:00,SystemResetWarning,0828.4,5.01,000.00,021.0,020.4,000.0,029.2,022.7,07.3,0000.0,0008.31,0003.36,0001.57
2024-02-28 21:56:00,SystemResetWarning,0828.3,5.01,000.00,021.1,020.4,000.0,029.2,022.7,07.3,0000.0,0008.29,0003.38,0001.57
2024-02-28 21:57:00,SystemResetWarning,0828.4,5.00,000.00,021.1,020.4,000.0,029.2,022.7,07.2,0000.0,0008.38,0003.40,0001.58
2024-02-28 21:58:00,SystemResetWarning,0828.3,5.01,000.00,021.1,020.4,000.0,029.2,022.7,07.3,0000.0,0008.40,0003.41,0001.57
2024-02-28 21:59:00,SystemResetWarning,0828.3,4.99,000.00,021.1,020.4,000.0,029.2,022.7,07.1,0000.0,0008.48,0003.43,0001.56
